Time,TemperatureF,DewpointF,PressureIn,WindDirection,WindDirectionDegrees,WindSpeedMPH,WindSpeedGustMPH,Humidity,HourlyPrecipIn,Conditions,Clouds,dailyrainin,SolarRadiationWatts/m^2,SoftwareType,DateUTC
2013-02-18 00:00:00,31.0,-99.9,20.00,NNE,19,0.0,9.0,255,0.00,,,0.00,0,Wunderground v.1.15,2013-02-18 08:00:00,
2013-02-18 00:10:00,30.8,-99.9,20.00,NNE,19,2.0,9.0,255,0.00,,,0.00,0,Wunderground v.1.15,2013-02-18 08:10:00,
2013-02-18 00:20:00,29.7,-99.9,20.00,NNE,19,0.0,9.0,255,0.00,,,0.00,0,Wunderground v.1.15,2013-02-18 08:20:00,
2013-02-18 00:30:00,30.8,-99.9,20.00,NNE,19,0.0,9.0,255,0.00,,,0.00,0,Wunderground v.1.15,2013-02-18 08:30:00,
2013-02-18 00:40:00,29.1,-99.9,20.00,NNE,19,1.0,9.0,255,0.00,,,0.00,0,Wunderground v.1.15,2013-02-18 08:40:00,
2013-02-18 00:45:00,30.6,-99.9,20.00,NNE,19,0.0,9.0,255,0.00,,,0.00,0,Wunderground v.1.15,2013-02-18 08:45:00,
2013-02-18 00:55:00,30.3,-99.9,20.00,NNE,19,0.0,9.0,255,0.00,,,0.00,0,Wunderground v.1.15,2013-02-18 08:55:00,
2013-02-18 01:05:00,31.6,-99.9,20.00,NNE,19,0.0,9.0,255,0.00,,,0.00,0,Wunderground v.1.15,2013-02-18 09:05:00,
2013-02-18 01:15:00,28.8,-99.9,20.00,NNE,19,0.0,9.0,255,0.00,,,0.00,0,Wunderground v.1.15,2013-02-18 09:15:00,
2013-02-18 01:25:00,29.2,-99.9,20.00,NNE,19,0.0,9.0,255,0.00,,,0.00,0,Wunderground v.1.15,2013-02-18 09:25:00,
2013-02-18 01:35:00,28.9,-99.9,20.00,NNE,19,2.0,9.0,255,0.00,,,0.00,0,Wunderground v.1.15,2013-02-18 09:35:00,
2013-02-18 01:45:00,29.0,-99.9,20.00,NNE,19,0.0,9.0,255,0.00,,,0.00,0,Wunderground v.1.15,2013-02-18 09:45:00,
2013-02-18 01:55:00,29.4,-99.9,20.00,NNE,19,0.0,9.0,255,0.00,,,0.00,0,Wunderground v.1.15,2013-02-18 09:55:00,
2013-02-18 02:05:00,29.9,-99.9,20.00,NNE,19,0.0,9.0,255,0.00,,,0.00,0,Wunderground v.1.15,2013-02-18 10:05:00,
2013-02-18 02:10:00,29.9,-99.9,20.00,NNE,19,0.0,9.0,255,0.00,,,0.00,0,Wunderground v.1.15,2013-02-18 10:10:00,
2013-02-18 02:20:00,31.8,-99.9,20.00,NNE,19,0.0,9.0,255,0.00,,,0.00,0,Wunderground v.1.15,2013-02-18 10:20:00,
2013-02-18 02:30:00,29.4,-99.9,20.00,NNE,19,0.0,9.0,255,0.00,,,0.00,0,Wunderground v.1.15,2013-02-18 10:30:00,
2013-02-18 02:40:00,28.9,-99.9,20.00,NNE,19,0.0,9.0,255,0.00,,,0.00,0,Wunderground v.1.15,2013-02-18 10:40:00,
2013-02-18 02:50:00,29.0,-99.9,20.00,NNE,19,0.0,9.0,255,0.00,,,0.00,0,Wunderground v.1.15,2013-02-18 10:50:00,
2013-02-18 03:00:00,28.7,-99.9,20.00,NNE,19,4.0,9.0,255,0.00,,,0.00,0,Wunderground v.1.15,2013-02-18 11:00:00,
2013-02-18 03:10:00,28.3,-99.9,20.00,NNE,19,2.0,9.0,255,0.00,,,0.00,0,Wunderground v.1.15,2013-02-18 11:10:00,
2013-02-18 03:15:00,29.3,-99.9,20.00,NNE,19,4.0,9.0,255,0.00,,,0.00,0,Wunderground v.1.15,2013-02-18 11:15:00,
2013-02-18 03:25:00,28.6,-99.9,20.00,NNE,16,5.0,9.0,255,0.00,,,0.00,0,Wunderground v.1.15,2013-02-18 11:25:00,
2013-02-18 03:35:00,28.3,-99.9,20.00,NNE,14,2.0,9.0,255,0.00,,,0.00,0,Wunderground v.1.15,2013-02-18 11:35:00,
2013-02-18 03:40:00,28.3,-99.9,20.00,NNE,14,1.0,9.0,255,0.00,,,0.00,0,Wunderground v.1.15,2013-02-18 11:40:00,
2013-02-18 03:50:00,30.8,-99.9,20.00,NNE,14,0.0,9.0,255,0.00,,,0.00,0,Wunderground v.1.15,2013-02-18 11:50:00,
2013-02-18 04:00:00,29.2,-99.9,20.00,NNE,14,1.0,9.0,255,0.00,,,0.00,0,Wunderground v.1.15,2013-02-18 12:00:00,
2013-02-18 04:10:00,30.5,-99.9,20.00,NNE,14,0.0,9.0,255,0.00,,,0.00,0,Wunderground v.1.15,2013-02-18 12:10:00,
2013-02-18 04:20:00,29.9,-99.9,20.00,NNE,14,0.0,9.0,255,0.00,,,0.00,0,Wunderground v.1.15,2013-02-18 12:20:00,
2013-02-18 04:30:00,32.2,-99.9,20.00,NNE,14,0.0,9.0,255,0.00,,,0.00,0,Wunderground v.1.15,2013-02-18 12:30:00,
2013-02-18 04:40:00,28.9,-99.9,20.00,NNE,14,0.0,9.0,255,0.00,,,0.00,0,Wunderground v.1.15,2013-02-18 12:40:00,
2013-02-18 04:45:00,29.1,-99.9,20.00,NNE,14,0.0,9.0,255,0.00,,,0.00,0,Wunderground v.1.15,2013-02-18 12:45:00,
2013-02-18 04:55:00,29.6,-99.9,20.00,NNE,14,2.0,9.0,255,0.00,,,0.00,0,Wunderground v.1.15,2013-02-18 12:55:00,
2013-02-18 05:05:00,28.6,-99.9,20.00,NNE,14,0.0,9.0,255,0.00,,,0.00,0,Wunderground v.1.15,2013-02-18 13:05:00,
2013-02-18 05:15:00,29.2,-99.9,20.00,NNE,14,0.0,9.0,255,0.00,,,0.00,0,Wunderground v.1.15,2013-02-18 13:15:00,
2013-02-18 05:25:00,29.1,-99.9,20.00,NNE,14,0.0,9.0,255,0.00,,,0.00,0,Wunderground v.1.15,2013-02-18 13:25:00,
2013-02-18 05:35:00,30.3,-99.9,20.00,NNE,14,0.0,9.0,255,0.00,,,0.00,0,Wunderground v.1.15,2013-02-18 13:35:00,
2013-02-18 05:45:00,29.3,-99.9,20.00,NNE,14,3.0,9.0,255,0.00,,,0.00,0,Wunderground v.1.15,2013-02-18 13:45:00,
2013-02-18 05:55:00,28.5,-99.9,20.00,NNE,14,4.0,9.0,255,0.00,,,0.00,0,Wunderground v.1.15,2013-02-18 13:55:00,
2013-02-18 06:05:00,28.4,-99.9,20.00,NNE,14,2.0,9.0,255,0.00,,,0.00,0,Wunderground v.1.15,2013-02-18 14:05:00,
2013-02-18 06:15:00,27.9,-99.9,20.00,NNE,14,2.0,9.0,255,0.00,,,0.00,0,Wunderground v.1.15,2013-02-18 14:15:00,
2013-02-18 06:25:00,27.8,-99.9,20.00,NNE,14,1.0,9.0,255,0.00,,,0.00,0,Wunderground v.1.15,2013-02-18 14:25:00,
2013-02-18 06:30:00,28.4,-99.9,20.00,NNE,13,2.0,9.0,255,0.00,,,0.00,0,Wunderground v.1.15,2013-02-18 14:30:00,
2013-02-18 06:40:00,27.9,-99.9,20.00,NNE,14,2.0,9.0,255,0.00,,,0.00,0,Wunderground v.1.15,2013-02-18 14:40:00,
2013-02-18 06:45:00,28.6,-99.9,20.00,NNE,14,0.0,9.0,255,0.00,,,0.00,0,Wunderground v.1.15,2013-02-18 14:45:00,
2013-02-18 06:55:00,28.4,-99.9,20.00,NNE,14,0.0,9.0,255,0.00,,,0.00,0,Wunderground v.1.15,2013-02-18 14:55:00,
2013-02-18 07:05:00,28.8,-99.9,20.00,NNE,14,2.0,9.0,255,0.00,,,0.00,0,Wunderground v.1.15,2013-02-18 15:05:00,
2013-02-18 07:10:00,29.2,-99.9,20.00,NNE,14,3.0,9.0,255,0.00,,,0.00,0,Wunderground v.1.15,2013-02-18 15:10:00,
2013-02-18 07:20:00,28.6,-99.9,20.00,NNE,14,3.0,9.0,255,0.00,,,0.00,0,Wunderground v.1.15,2013-02-18 15:20:00,
2013-02-18 07:30:00,29.1,-99.9,20.00,NNE,14,1.0,9.0,255,0.00,,,0.00,0,Wunderground v.1.15,2013-02-18 15:30:00,
2013-02-18 07:40:00,29.5,-99.9,20.00,NNE,14,0.0,9.0,255,0.00,,,0.00,0,Wunderground v.1.15,2013-02-18 15:40:00,
2013-02-18 07:50:00,29.6,-99.9,20.00,NNE,14,1.0,9.0,255,0.00,,,0.00,0,Wunderground v.1.15,2013-02-18 15:50:00,
2013-02-18 08:00:00,29.1,-99.9,20.00,NNE,14,2.0,9.0,255,0.00,,,0.00,0,Wunderground v.1.15,2013-02-18 16:00:00,
2013-02-18 08:10:00,28.8,-99.9,20.00,NNE,14,3.0,9.0,255,0.00,,,0.00,0,Wunderground v.1.15,2013-02-18 16:10:00,
2013-02-18 08:20:00,29.3,-99.9,20.00,NNE,14,2.0,9.0,255,0.00,,,0.00,0,Wunderground v.1.15,2013-02-18 16:20:00,
2013-02-18 08:30:00,29.7,-99.9,20.00,NNE,14,0.0,9.0,255,0.00,,,0.00,0,Wunderground v.1.15,2013-02-18 16:30:00,
2013-02-18 08:40:00,30.8,-99.9,20.00,NNE,14,0.0,9.0,255,0.00,,,0.00,0,Wunderground v.1.15,2013-02-18 16:40:00,
2013-02-18 08:50:00,30.8,-99.9,20.00,NNE,14,2.0,9.0,255,0.00,,,0.00,0,Wunderground v.1.15,2013-02-18 16:50:00,
2013-02-18 09:00:00,30.3,-99.9,20.00,NNE,14,2.0,9.0,255,0.00,,,0.00,0,Wunderground v.1.15,2013-02-18 17:00:00,
2013-02-18 09:10:00,30.7,-99.9,20.00,NE,47,6.0,9.0,255,0.00,,,0.00,0,Wunderground v.1.15,2013-02-18 17:10:00,
2013-02-18 09:20:00,31.0,-99.9,20.00,East,94,5.0,9.0,255,0.00,,,0.00,0,Wunderground v.1.15,2013-02-18 17:20:00,
2013-02-18 09:30:00,32.0,-99.9,20.00,East,97,5.0,9.0,255,0.00,,,0.00,0,Wunderground v.1.15,2013-02-18 17:30:00,
2013-02-18 09:40:00,34.0,-99.9,20.00,ESE,104,3.0,9.0,255,0.00,,,0.00,0,Wunderground v.1.15,2013-02-18 17:40:00,
2013-02-18 09:50:00,33.2,-99.9,20.00,ESE,105,5.0,9.0,255,0.00,,,0.00,0,Wunderground v.1.15,2013-02-18 17:50:00,
2013-02-18 10:00:00,31.9,-99.9,20.00,East,101,5.0,9.0,255,0.00,,,0.00,0,Wunderground v.1.15,2013-02-18 18:00:00,
2013-02-18 10:10:00,32.5,-99.9,20.00,East,100,1.0,9.0,255,0.00,,,0.00,0,Wunderground v.1.15,2013-02-18 18:10:00,
2013-02-18 10:20:00,33.4,-99.9,20.00,East,100,0.0,9.0,255,0.00,,,0.00,0,Wunderground v.1.15,2013-02-18 18:20:00,
2013-02-18 10:30:00,34.6,-99.9,20.00,East,100,0.0,9.0,255,0.00,,,0.00,0,Wunderground v.1.15,2013-02-18 18:30:00,
2013-02-18 10:40:00,35.6,-99.9,20.00,East,100,0.0,9.0,255,0.00,,,0.00,0,Wunderground v.1.15,2013-02-18 18:40:00,
2013-02-18 10:50:00,35.7,-99.9,20.00,ESE,103,0.0,9.0,255,0.00,,,0.00,0,Wunderground v.1.15,2013-02-18 18:50:00,
2013-02-18 11:00:00,35.4,-99.9,20.00,ESE,106,6.0,9.0,255,0.00,,,0.00,0,Wunderground v.1.15,2013-02-18 19:00:00,
2013-02-18 11:05:00,35.2,-99.9,20.00,ESE,113,0.0,9.0,255,0.00,,,0.00,0,Wunderground v.1.15,2013-02-18 19:05:00,
2013-02-18 11:15:00,35.9,-99.9,20.00,ESE,102,6.0,9.0,255,0.00,,,0.00,0,Wunderground v.1.15,2013-02-18 19:15:00,
2013-02-18 11:25:00,36.7,-99.9,20.00,ESE,111,6.0,9.0,255,0.00,,,0.00,0,Wunderground v.1.15,2013-02-18 19:25:00,
2013-02-18 11:30:00,36.6,-99.9,20.00,ESE,116,5.0,9.0,255,0.00,,,0.00,0,Wunderground v.1.15,2013-02-18 19:30:00,
2013-02-18 11:40:00,37.4,-99.9,20.00,SE,133,6.0,9.0,255,0.00,,,0.00,0,Wunderground v.1.15,2013-02-18 19:40:00,
2013-02-18 11:50:00,37.6,-99.9,20.00,SE,124,4.0,9.0,255,0.00,,,0.00,0,Wunderground v.1.15,2013-02-18 19:50:00,
2013-02-18 12:00:00,38.0,-99.9,20.00,ESE,112,5.0,9.0,255,0.00,,,0.00,0,Wunderground v.1.15,2013-02-18 20:00:00,
2013-02-18 12:10:00,38.3,-99.9,20.00,ESE,109,6.0,9.0,255,0.00,,,0.00,0,Wunderground v.1.15,2013-02-18 20:10:00,
2013-02-18 12:20:00,38.6,-99.9,20.00,East,101,9.0,9.0,255,0.00,,,0.00,0,Wunderground v.1.15,2013-02-18 20:20:00,
2013-02-18 12:25:00,38.7,-99.9,20.00,East,101,5.0,9.0,255,0.00,,,0.00,0,Wunderground v.1.15,2013-02-18 20:25:00,
2013-02-18 12:35:00,39.3,-99.9,20.00,ESE,122,7.0,9.0,255,0.00,,,0.00,0,Wunderground v.1.15,2013-02-18 20:35:00,
2013-02-18 12:45:00,38.7,-99.9,20.00,SE,135,5.0,9.0,255,0.00,,,0.00,0,Wunderground v.1.15,2013-02-18 20:45:00,
2013-02-18 12:55:00,39.3,-99.9,20.00,ESE,111,7.0,9.0,255,0.00,,,0.00,0,Wunderground v.1.15,2013-02-18 20:55:00,
2013-02-18 13:00:00,39.7,-99.9,20.00,SE,125,7.0,9.0,255,0.00,,,0.00,0,Wunderground v.1.15,2013-02-18 21:00:00,
2013-02-18 13:10:00,38.9,-99.9,20.00,SE,135,6.0,9.0,255,0.00,,,0.00,0,Wunderground v.1.15,2013-02-18 21:10:00,
2013-02-18 13:20:00,39.6,-99.9,20.00,ESE,122,9.0,9.0,255,0.00,,,0.00,0,Wunderground v.1.15,2013-02-18 21:20:00,
2013-02-18 13:30:00,39.8,-99.9,20.00,ESE,122,6.0,9.0,255,0.00,,,0.00,0,Wunderground v.1.15,2013-02-18 21:30:00,
2013-02-18 13:35:00,39.6,-99.9,20.00,SE,129,7.0,9.0,255,0.00,,,0.00,0,Wunderground v.1.15,2013-02-18 21:35:00,
2013-02-18 13:45:00,41.0,-99.9,20.00,SE,133,5.0,9.0,255,0.00,,,0.00,0,Wunderground v.1.15,2013-02-18 21:45:00,
2013-02-18 13:55:00,40.3,-99.9,20.00,ESE,113,9.0,9.0,255,0.00,,,0.00,0,Wunderground v.1.15,2013-02-18 21:55:00,
2013-02-18 14:05:00,40.3,-99.9,20.00,ESE,112,6.0,9.0,255,0.00,,,0.00,0,Wunderground v.1.15,2013-02-18 22:05:00,
2013-02-18 14:15:00,40.5,-99.9,20.00,SE,133,6.0,11.0,255,0.00,,,0.00,0,Wunderground v.1.15,2013-02-18 22:15:00,
2013-02-18 14:20:00,41.3,-99.9,20.00,ESE,113,10.0,10.0,255,0.00,,,0.00,0,Wunderground v.1.15,2013-02-18 22:20:00,
2013-02-18 14:30:00,40.2,-99.9,20.00,ESE,118,9.0,9.0,255,0.00,,,0.00,0,Wunderground v.1.15,2013-02-18 22:30:00,
2013-02-18 14:35:00,39.9,-99.9,20.00,ESE,115,10.0,10.0,255,0.00,,,0.00,0,Wunderground v.1.15,2013-02-18 22:35:00,
2013-02-18 14:45:00,39.7,-99.9,20.00,ESE,123,7.0,9.0,255,0.00,,,0.00,0,Wunderground v.1.15,2013-02-18 22:45:00,
2013-02-18 14:50:00,39.9,-99.9,20.00,SE,136,4.0,9.0,255,0.00,,,0.00,0,Wunderground v.1.15,2013-02-18 22:50:00,
2013-02-18 15:00:00,40.0,-99.9,20.00,ESE,123,10.0,10.0,255,0.00,,,0.00,0,Wunderground v.1.15,2013-02-18 23:00:00,
2013-02-18 15:10:00,39.9,-99.9,20.00,ESE,115,9.0,9.0,255,0.00,,,0.00,0,Wunderground v.1.15,2013-02-18 23:10:00,
2013-02-18 15:20:00,39.8,-99.9,20.00,SE,132,7.0,9.0,255,0.00,,,0.00,0,Wunderground v.1.15,2013-02-18 23:20:00,
2013-02-18 15:30:00,39.8,-99.9,20.00,SE,131,9.0,9.0,255,0.00,,,0.00,0,Wunderground v.1.15,2013-02-18 23:30:00,
2013-02-18 15:35:00,39.8,-99.9,20.00,SE,129,7.0,9.0,255,0.00,,,0.00,0,Wunderground v.1.15,2013-02-18 23:35:00,
2013-02-18 15:45:00,39.5,-99.9,20.00,SE,137,9.0,9.0,255,0.00,,,0.00,0,Wunderground v.1.15,2013-02-18 23:45:00,
2013-02-18 15:55:00,39.5,-99.9,20.00,SE,125,6.0,9.0,255,0.00,,,0.00,0,Wunderground v.1.15,2013-02-18 23:55:00,
2013-02-18 16:00:00,39.7,-99.9,20.00,SE,131,3.0,9.0,255,0.00,,,0.00,0,Wunderground v.1.15,2013-02-19 00:00:00,
2013-02-18 16:10:00,39.5,-99.9,20.00,SE,134,7.0,9.0,255,0.00,,,0.00,0,Wunderground v.1.15,2013-02-19 00:10:00,
2013-02-18 16:20:00,39.3,-99.9,20.00,ESE,120,10.0,10.0,255,0.00,,,0.00,0,Wunderground v.1.15,2013-02-19 00:20:00,
2013-02-18 16:25:00,39.2,-99.9,20.00,SE,136,8.0,10.0,255,0.00,,,0.00,0,Wunderground v.1.15,2013-02-19 00:25:00,
2013-02-18 16:35:00,38.7,-99.9,20.00,SE,136,11.0,11.0,255,0.00,,,0.00,0,Wunderground v.1.15,2013-02-19 00:35:00,
2013-02-18 16:45:00,38.4,-99.9,20.00,SE,129,8.0,9.0,255,0.00,,,0.00,0,Wunderground v.1.15,2013-02-19 00:45:00,
2013-02-18 16:50:00,38.3,-99.9,20.00,SE,131,9.0,9.0,255,0.00,,,0.00,0,Wunderground v.1.15,2013-02-19 00:50:00,
2013-02-18 17:00:00,38.2,-99.9,20.00,SE,133,8.0,9.0,255,0.00,,,0.00,0,Wunderground v.1.15,2013-02-19 01:00:00,
2013-02-18 17:10:00,38.0,-99.9,20.00,SE,127,4.0,9.0,255,0.00,,,0.00,0,Wunderground v.1.15,2013-02-19 01:10:00,
2013-02-18 17:20:00,37.7,-99.9,20.00,ESE,111,7.0,9.0,255,0.00,,,0.00,0,Wunderground v.1.15,2013-02-19 01:20:00,
2013-02-18 17:25:00,37.6,-99.9,20.00,ESE,110,4.0,9.0,255,0.00,,,0.00,0,Wunderground v.1.15,2013-02-19 01:25:00,
2013-02-18 17:30:00,37.5,-99.9,20.00,ESE,119,5.0,9.0,255,0.00,,,0.00,0,Wunderground v.1.15,2013-02-19 01:30:00,
2013-02-18 17:40:00,37.3,-99.9,20.00,SE,134,5.0,9.0,255,0.00,,,0.00,0,Wunderground v.1.15,2013-02-19 01:40:00,
2013-02-18 17:45:00,37.1,-99.9,20.00,SE,131,4.0,9.0,255,0.00,,,0.00,0,Wunderground v.1.15,2013-02-19 01:45:00,
2013-02-18 17:55:00,36.8,-99.9,20.00,ESE,122,4.0,9.0,255,0.00,,,0.00,0,Wunderground v.1.15,2013-02-19 01:55:00,
2013-02-18 18:05:00,36.7,-99.9,20.00,ESE,106,3.0,9.0,255,0.00,,,0.00,0,Wunderground v.1.15,2013-02-19 02:05:00,
2013-02-18 18:15:00,36.5,-99.9,20.00,ESE,106,2.0,9.0,255,0.00,,,0.00,0,Wunderground v.1.15,2013-02-19 02:15:00,
2013-02-18 18:20:00,36.4,-99.9,20.00,ESE,106,4.0,9.0,255,0.00,,,0.00,0,Wunderground v.1.15,2013-02-19 02:20:00,
2013-02-18 18:30:00,36.2,-99.9,20.00,ESE,102,3.0,9.0,255,0.00,,,0.00,0,Wunderground v.1.15,2013-02-19 02:30:00,
2013-02-18 18:40:00,36.3,-99.9,20.00,ESE,102,1.0,9.0,255,0.00,,,0.00,0,Wunderground v.1.15,2013-02-19 02:40:00,
2013-02-18 18:50:00,36.4,-99.9,20.00,ESE,102,2.0,9.0,255,0.00,,,0.00,0,Wunderground v.1.15,2013-02-19 02:50:00,
2013-02-18 19:00:00,36.2,-99.9,20.00,ESE,102,3.0,9.0,255,0.00,,,0.00,0,Wunderground v.1.15,2013-02-19 03:00:00,
2013-02-18 19:05:00,36.1,-99.9,20.00,ESE,102,4.0,9.0,255,0.00,,,0.00,0,Wunderground v.1.15,2013-02-19 03:05:00,
2013-02-18 19:15:00,36.0,-99.9,20.00,ESE,103,4.0,9.0,255,0.00,,,0.00,0,Wunderground v.1.15,2013-02-19 03:15:00,
2013-02-18 19:25:00,36.3,-99.9,20.00,ESE,103,0.0,9.0,255,0.00,,,0.00,0,Wunderground v.1.15,2013-02-19 03:25:00,
2013-02-18 19:35:00,36.2,-99.9,20.00,ESE,103,2.0,9.0,255,0.00,,,0.00,0,Wunderground v.1.15,2013-02-19 03:35:00,
2013-02-18 19:45:00,35.8,-99.9,20.00,ESE,103,0.0,9.0,255,0.00,,,0.00,0,Wunderground v.1.15,2013-02-19 03:45:00,
2013-02-18 19:55:00,35.8,-99.9,20.00,ESE,103,1.0,9.0,255,0.00,,,0.00,0,Wunderground v.1.15,2013-02-19 03:55:00,
2013-02-18 20:05:00,36.1,-99.9,20.00,ESE,103,0.0,9.0,255,0.00,,,0.00,0,Wunderground v.1.15,2013-02-19 04:05:00,
2013-02-18 20:15:00,35.6,-99.9,20.00,ESE,103,4.0,9.0,255,0.00,,,0.00,0,Wunderground v.1.15,2013-02-19 04:15:00,
2013-02-18 20:25:00,35.4,-99.9,20.00,ESE,104,3.0,9.0,255,0.00,,,0.00,0,Wunderground v.1.15,2013-02-19 04:25:00,
2013-02-18 20:30:00,35.6,-99.9,20.00,ESE,103,2.0,9.0,255,0.00,,,0.00,0,Wunderground v.1.15,2013-02-19 04:30:00,
2013-02-18 20:40:00,35.3,-99.9,20.00,ESE,103,3.0,9.0,255,0.00,,,0.00,0,Wunderground v.1.15,2013-02-19 04:40:00,
2013-02-18 20:50:00,35.4,-99.9,20.00,ESE,104,1.0,9.0,255,0.00,,,0.00,0,Wunderground v.1.15,2013-02-19 04:50:00,
2013-02-18 21:00:00,35.3,-99.9,20.00,ESE,103,0.0,9.0,255,0.00,,,0.00,0,Wunderground v.1.15,2013-02-19 05:00:00,
2013-02-18 21:05:00,35.5,-99.9,20.00,ESE,103,0.0,9.0,255,0.00,,,0.00,0,Wunderground v.1.15,2013-02-19 05:05:00,
2013-02-18 21:10:00,35.8,-99.9,20.00,ESE,103,0.0,9.0,255,0.00,,,0.00,0,Wunderground v.1.15,2013-02-19 05:10:00,
2013-02-18 21:20:00,35.1,-99.9,20.00,ESE,104,1.0,9.0,255,0.00,,,0.00,0,Wunderground v.1.15,2013-02-19 05:20:00,
2013-02-18 21:30:00,34.9,-99.9,20.00,ESE,103,3.0,9.0,255,0.00,,,0.00,0,Wunderground v.1.15,2013-02-19 05:30:00,
2013-02-18 21:35:00,34.8,-99.9,20.00,ESE,103,3.0,9.0,255,0.00,,,0.00,0,Wunderground v.1.15,2013-02-19 05:35:00,
2013-02-18 21:40:00,34.7,-99.9,20.00,ESE,103,3.0,9.0,255,0.00,,,0.00,0,Wunderground v.1.15,2013-02-19 05:40:00,
2013-02-18 21:45:00,34.7,-99.9,20.00,ESE,103,4.0,9.0,255,0.00,,,0.00,0,Wunderground v.1.15,2013-02-19 05:45:00,
2013-02-18 21:55:00,34.4,-99.9,20.00,ENE,78,3.0,9.0,255,0.00,,,0.00,0,Wunderground v.1.15,2013-02-19 05:55:00,
2013-02-18 22:05:00,34.9,-99.9,20.00,East,79,0.0,9.0,255,0.00,,,0.00,0,Wunderground v.1.15,2013-02-19 06:05:00,
2013-02-18 22:10:00,35.4,-99.9,20.00,East,79,0.0,9.0,255,0.00,,,0.00,0,Wunderground v.1.15,2013-02-19 06:10:00,
2013-02-18 22:20:00,36.0,-99.9,20.00,East,79,0.0,9.0,255,0.00,,,0.00,0,Wunderground v.1.15,2013-02-19 06:20:00,
2013-02-18 22:30:00,34.5,-99.9,20.00,East,79,1.0,9.0,255,0.00,,,0.00,0,Wunderground v.1.15,2013-02-19 06:30:00,
2013-02-18 22:40:00,34.3,-99.9,20.00,East,79,3.0,9.0,255,0.00,,,0.00,0,Wunderground v.1.15,2013-02-19 06:40:00,
2013-02-18 22:45:00,34.3,-99.9,20.00,East,79,2.0,9.0,255,0.00,,,0.00,0,Wunderground v.1.15,2013-02-19 06:45:00,
2013-02-18 22:55:00,34.4,-99.9,20.00,East,79,4.0,9.0,255,0.00,,,0.00,0,Wunderground v.1.15,2013-02-19 06:55:00,
2013-02-18 23:05:00,34.0,-99.9,20.00,East,79,3.0,9.0,255,0.00,,,0.00,0,Wunderground v.1.15,2013-02-19 07:05:00,
2013-02-18 23:10:00,34.2,-99.9,20.00,East,90,4.0,9.0,255,0.00,,,0.00,0,Wunderground v.1.15,2013-02-19 07:10:00,
2013-02-18 23:20:00,33.8,-99.9,20.00,ENE,69,5.0,9.0,255,0.00,,,0.00,0,Wunderground v.1.15,2013-02-19 07:20:00,
2013-02-18 23:30:00,34.0,-99.9,20.00,ENE,68,0.0,9.0,255,0.00,,,0.00,0,Wunderground v.1.15,2013-02-19 07:30:00,
2013-02-18 23:40:00,33.9,-99.9,20.00,ENE,71,0.0,9.0,255,0.00,,,0.00,0,Wunderground v.1.15,2013-02-19 07:40:00,
2013-02-18 23:45:00,33.6,-99.9,20.00,ENE,71,2.0,9.0,255,0.00,,,0.00,0,Wunderground v.1.15,2013-02-19 07:45:00,
2013-02-18 23:50:00,33.6,-99.9,20.00,ENE,70,4.0,9.0,255,0.00,,,0.00,0,Wunderground v.1.15,2013-02-19 07:50:00,